TimeCDT,TemperatureF,Dew PointF,Humidity,Sea Level PressureIn,VisibilityMPH,Wind Direction,Wind SpeedMPH,Gust SpeedMPH,PrecipitationIn,Events,Conditions,WindDirDegrees,DateUTC
12:15 AM,50.9,47.7,89,30.05,10.0,East,5.8,-,N/A,,Clear,90,2013-09-23 05:15:00
12:35 AM,50.9,47.5,88,30.05,10.0,East,6.9,-,N/A,,Clear,80,2013-09-23 05:35:00
12:55 AM,50.4,47.3,89,30.05,10.0,East,4.6,-,N/A,,Clear,90,2013-09-23 05:55:00
1:15 AM,50.0,46.9,89,30.05,10.0,East,4.6,-,N/A,,Clear,90,2013-09-23 06:15:00
1:35 AM,50.0,46.8,89,30.05,10.0,East,3.5,-,N/A,,Clear,90,2013-09-23 06:35:00
1:55 AM,49.3,46.4,90,30.06,10.0,East,3.5,-,N/A,,Clear,80,2013-09-23 06:55:00
2:15 AM,48.6,45.5,89,30.06,10.0,East,3.5,-,N/A,,Clear,90,2013-09-23 07:15:00
2:35 AM,48.2,45.5,90,30.05,10.0,East,4.6,-,N/A,,Clear,80,2013-09-23 07:35:00
2:55 AM,47.8,45.5,92,30.05,10.0,East,4.6,-,N/A,,Clear,80,2013-09-23 07:55:00
3:15 AM,47.7,45.1,91,30.05,10.0,East,4.6,-,N/A,,Clear,80,2013-09-23 08:15:00
3:35 AM,47.7,45.5,92,30.05,10.0,East,3.5,-,N/A,,Clear,80,2013-09-23 08:35:00
3:55 AM,47.3,44.8,91,30.06,10.0,East,5.8,-,N/A,,Clear,80,2013-09-23 08:55:00
4:15 AM,47.3,45.0,92,30.06,10.0,East,4.6,-,N/A,,Clear,80,2013-09-23 09:15:00
4:35 AM,46.6,44.2,92,30.06,10.0,East,4.6,-,N/A,,Clear,80,2013-09-23 09:35:00
4:55 AM,46.4,44.2,92,30.06,10.0,East,6.9,-,N/A,,Clear,80,2013-09-23 09:55:00
5:15 AM,46.6,44.2,92,30.06,10.0,East,5.8,-,N/A,,Clear,80,2013-09-23 10:15:00
5:35 AM,46.4,44.1,92,30.07,10.0,East,5.8,-,N/A,,Clear,80,2013-09-23 10:35:00
5:55 AM,45.9,43.7,92,30.08,10.0,East,4.6,-,N/A,,Clear,80,2013-09-23 10:55:00
6:15 AM,45.5,43.3,92,30.08,10.0,East,4.6,-,N/A,,Clear,80,2013-09-23 11:15:00
6:35 AM,45.5,43.7,93,30.08,10.0,ENE,6.9,-,N/A,,Clear,70,2013-09-23 11:35:00
6:55 AM,45.9,43.7,92,30.08,10.0,East,5.8,-,N/A,,Clear,80,2013-09-23 11:55:00
7:15 AM,45.9,43.7,92,30.08,10.0,East,6.9,-,N/A,,Clear,80,2013-09-23 12:15:00
7:35 AM,47.3,45.0,92,30.09,10.0,East,5.8,-,N/A,,Clear,80,2013-09-23 12:35:00
7:55 AM,49.1,46.2,90,30.09,10.0,East,4.6,-,N/A,,Clear,100,2013-09-23 12:55:00
8:15 AM,50.4,46.4,86,30.09,10.0,East,5.8,-,N/A,,Clear,100,2013-09-23 13:15:00
8:35 AM,52.2,46.6,81,30.09,10.0,ESE,4.6,-,N/A,,Clear,110,2013-09-23 13:35:00
8:55 AM,54.7,47.1,76,30.10,10.0,ESE,6.9,-,N/A,,Clear,110,2013-09-23 13:55:00
9:15 AM,55.0,46.2,72,30.10,10.0,SE,5.8,-,N/A,,Clear,130,2013-09-23 14:15:00
9:35 AM,56.3,46.6,70,30.10,10.0,SE,5.8,-,N/A,,Clear,130,2013-09-23 14:35:00
9:55 AM,57.9,47.5,68,30.10,10.0,SE,3.5,-,N/A,,Clear,140,2013-09-23 14:55:00
10:15 AM,59.9,47.8,64,30.11,10.0,SE,3.5,-,N/A,,Clear,130,2013-09-23 15:15:00
10:35 AM,61.3,48.2,62,30.11,10.0,ESE,5.8,-,N/A,,Clear,110,2013-09-23 15:35:00
10:55 AM,62.6,48.2,59,30.10,10.0,Calm,Calm,-,N/A,,Clear,0,2013-09-23 15:55:00
11:15 AM,63.9,48.4,57,30.10,10.0,East,4.6,-,N/A,,Clear,90,2013-09-23 16:15:00
11:35 AM,64.9,47.8,54,30.10,10.0,SE,4.6,-,N/A,,Clear,140,2013-09-23 16:35:00
11:55 AM,65.7,47.7,52,30.09,10.0,East,4.6,-,N/A,,Clear,100,2013-09-23 16:55:00
12:15 PM,67.1,48.4,51,30.08,10.0,SE,4.6,-,N/A,,Clear,130,2013-09-23 17:15:00
12:35 PM,68.0,47.8,48,30.07,10.0,SE,5.8,-,N/A,,Clear,130,2013-09-23 17:35:00
12:55 PM,68.9,47.1,46,30.07,10.0,SE,9.2,-,N/A,,Clear,140,2013-09-23 17:55:00
1:15 PM,69.1,47.8,47,30.07,10.0,East,3.5,-,N/A,,Clear,90,2013-09-23 18:15:00
1:35 PM,69.6,47.3,45,30.05,10.0,South,4.6,-,N/A,,Clear,180,2013-09-23 18:35:00
1:55 PM,69.8,47.5,45,30.05,10.0,Calm,Calm,-,N/A,,Clear,0,2013-09-23 18:55:00
2:15 PM,70.7,48.2,45,30.04,10.0,East,4.6,-,N/A,,Clear,100,2013-09-23 19:15:00
2:35 PM,71.6,48.6,44,30.03,10.0,ESE,6.9,-,N/A,,Clear,120,2013-09-23 19:35:00
2:55 PM,72.5,47.8,42,30.02,10.0,ESE,9.2,-,N/A,,Clear,120,2013-09-23 19:55:00
3:15 PM,72.1,48.9,44,30.02,10.0,East,10.4,-,N/A,,Clear,90,2013-09-23 20:15:00
3:35 PM,72.7,49.5,44,30.01,10.0,East,8.1,-,N/A,,Clear,80,2013-09-23 20:35:00
3:55 PM,72.7,48.4,42,30.01,10.0,East,10.4,-,N/A,,Clear,80,2013-09-23 20:55:00
4:15 PM,72.7,48.9,43,30.01,10.0,East,11.5,-,N/A,,Clear,90,2013-09-23 21:15:00
4:35 PM,72.7,49.3,44,30.00,10.0,East,8.1,-,N/A,,Clear,90,2013-09-23 21:35:00
4:55 PM,71.8,48.9,44,30.00,10.0,East,10.4,-,N/A,,Clear,90,2013-09-23 21:55:00
5:15 PM,71.6,49.3,45,30.00,10.0,East,10.4,-,N/A,,Clear,80,2013-09-23 22:15:00
5:35 PM,70.7,49.8,48,30.00,10.0,East,11.5,-,N/A,,Clear,90,2013-09-23 22:35:00
5:55 PM,69.8,48.9,47,30.01,10.0,East,10.4,-,N/A,,Clear,90,2013-09-23 22:55:00
6:15 PM,68.2,49.1,50,30.01,10.0,East,8.1,-,N/A,,Clear,90,2013-09-23 23:15:00
6:35 PM,66.2,49.1,54,30.00,10.0,East,8.1,-,N/A,,Clear,80,2013-09-23 23:35:00
6:55 PM,63.9,49.1,59,30.00,10.0,East,8.1,-,N/A,,Clear,80,2013-09-23 23:55:00
7:15 PM,62.8,49.1,61,30.00,10.0,East,8.1,-,N/A,,Clear,80,2013-09-24 00:15:00
7:35 PM,62.4,49.1,62,30.00,10.0,East,9.2,-,N/A,,Clear,80,2013-09-24 00:35:00
7:55 PM,61.0,48.6,64,30.00,10.0,East,9.2,-,N/A,,Clear,90,2013-09-24 00:55:00
8:15 PM,60.1,47.8,64,30.01,10.0,East,8.1,-,N/A,,Clear,90,2013-09-24 01:15:00
8:35 PM,59.9,47.5,64,30.01,10.0,East,8.1,-,N/A,,Clear,90,2013-09-24 01:35:00
8:55 PM,59.4,47.7,65,30.01,10.0,East,6.9,-,N/A,,Clear,80,2013-09-24 01:55:00
9:15 PM,57.6,47.3,69,30.01,10.0,East,6.9,-,N/A,,Clear,80,2013-09-24 02:15:00
9:35 PM,57.4,47.3,69,30.02,10.0,East,9.2,-,N/A,,Clear,80,2013-09-24 02:35:00
9:55 PM,57.4,48.6,72,30.02,10.0,East,10.4,-,N/A,,Clear,90,2013-09-24 02:55:00
10:15 PM,56.5,49.5,77,30.02,10.0,East,10.4,-,N/A,,Clear,90,2013-09-24 03:15:00
10:35 PM,55.9,50.0,80,30.01,10.0,East,9.2,-,N/A,,Clear,80,2013-09-24 03:35:00
10:55 PM,55.0,50.0,83,30.02,10.0,East,8.1,-,N/A,,Clear,90,2013-09-24 03:55:00
11:15 PM,54.7,50.4,85,30.02,10.0,East,6.9,-,N/A,,Clear,80,2013-09-24 04:15:00
11:35 PM,53.6,49.6,86,30.02,10.0,East,6.9,-,N/A,,Clear,80,2013-09-24 04:35:00
11:55 PM,53.1,49.6,88,30.02,10.0,East,6.9,-,N/A,,Clear,90,2013-09-24 04:55:00